Regional Weather Roundup
Issued by NWS

Home | Current Version | Previous Version | Text Only | Print | Product List | Glossary On
Versions: 1 2 3 4 5 6 7 8 9 10 11 12 13 14 15 16 17 18 19 20 21 22 23 24 25 26 27 28 29 30 31 32 33 34 35 36 37 38 39 40 41 42 43 44 45 46 47 48 49 50
000
ASUS42 KFFC 160503
RWRGA
WEATHER ROUNDUP FOR GEORGIA
NATIONAL WEATHER SERVICE PEACHTREE CITY GA
100 AM EDT TUE SEP 16 2014

NOTE: "FAIR" INDICATES FEW OR NO CLOUDS BELOW 12,000 FEET WITH NO
SIGNIFICANT WEATHER AND/OR OBSTRUCTIONS TO VISIBILITY.

* = USE WITH CAUTION. THE STATIONS MARKED WITH AN ASTERISK MAY NOT
REPORT WEATHER SUCH AS PRECIPITATION, FOG, OR THUNDER AND ARE NOT
QUALITY CONTROLLED BY NWS.

THE REMARK "TC" DENOTES TEMPERATURE READING IN DEGREES CELSIUS.

GAZ001>058-160600-
NORTH GEORGIA

CITY           SKY/WX    TMP DP  RH WIND       PRES   REMARKS
ATLANTA        CLOUDY    72  70  93 CALM      30.14F
ATHENS         CLOUDY    72  70  93 CALM      30.14F
CHAMBLEE       CLOUDY    72  68  87 CALM      30.15F FOG
PEACHTREE CITY CLOUDY    72  71  97 CALM      30.15S FOG
ROME           LGT RAIN  72  71  97 CALM      30.12F FOG
WEST ATLANTA   CLOUDY    73  70  90 CALM      30.14F
GAINESVILLE    CLOUDY    70  68  93 CALM      30.17F FOG
CARTERSVILLE   CLOUDY    72  70  93 CALM      30.13F


CITY           SKY/WX    TMP DP  RH WIND       PRES   REMARKS
DALTON*        MOCLDY    70  70 100 CALM      30.13F
MARIETTA       CLOUDY    73  71  95 SE3       30.15F
$$

GAZ059>098-102>109-160600-
CENTRAL GEORGIA

CITY           SKY/WX    TMP DP  RH WIND       PRES   REMARKS
AUGUSTA-BUSH   HVY RAIN  73  72  96 CALM      30.10F FOG
AUGUSTA-DANIEL CLOUDY    75  72  90 CALM      30.12F
COLUMBUS       PTCLDY    75  72  90 SE3       30.09F
MACON          MOCLDY    72  72 100 S5        30.10F
ROBINS AFB     MOCLDY    73  71  93 S6        30.10F


CITY           SKY/WX    TMP DP  RH WIND       PRES   REMARKS
LAGRANGE*      PTCLDY    75  74  98 CALM      30.12F
SYLVANIA*      CLOUDY    75  74  98 CALM      30.10F FOG
MILLEDGEVILLE* CLOUDY    73  73 100 CALM      30.11F FOG
$$

GAZ099>101-110>166-160600-
SOUTH GEORGIA

CITY           SKY/WX    TMP DP  RH WIND       PRES   REMARKS
SAVANNAH       CLOUDY    76  72  87 CALM      30.10F
VALDOSTA       CLOUDY    75  74  96 SE3       30.11F
ALMA           CLOUDY    73  72  96 S6        30.08F
ST SIMONS      CLOUDY    75  74  96 CALM      30.08F
FT STEWART     CLOUDY    75  74  96 CALM      30.08F
ALBANY         CLOUDY    76  74  93 E3        30.11F
HUNTER AFB     CLOUDY    75  75 100 N1        30.07F
MOODY AFB      CLOUDY    73  72  96 SE3       30.10F
BRUNSWICK      CLOUDY    75  72  88 CALM      30.09F


CITY           SKY/WX    TMP DP  RH WIND       PRES   REMARKS
BAINBRIDGE*    CLOUDY    79  77  94 CALM      30.09F
MOULTRIE*      PTCLDY    73  73 100 CALM      30.10F
VIDALIA*       CLOUDY    73  73 100 CALM      30.10F
WAYCROSS*      CLOUDY    76  76  99 SW6       30.09F
DOUGLAS*       CLOUDY    75  73  94 CALM      30.10F
$$


USA.gov is the U.S. government's official web portal to all federal, state and local government web resources and services.